STARLINK-2702, 48441

Orbit data source: Space-Track

STARLINK-2702, 48441 is a payload satellite owned by SpaceX/Seattle (US) in LEO that was launched on Sun, 09 May 2021 UTC via an FALCON 9 launch vehicle from the Air Force Eastern Test Range (AFETR). Payload-class satellites include a variety of spacecraft equipped with specific instruments for various scientific and technological missions. These include communications satellites like Starlink; space stations such as the ISS; scientific satellites like the Hubble; Earth observation satellites from companies like Planet Labs, Umbra, and HawkEye 360; GPS; miniature CubeSats for education and research; and military/defense satellites.

Loading next visibility...
Identifier
48441, 2021-040P
Orbit
LEO
Country
Flag of USUS
Related business
Manufacturer
SpaceX/Seattle
Mission
Operational Commercial Communications
Bus & Motor
STARLINK, Unknown motor
Mass
260 kg wet, ~248 kg dry
Launch date (UTC)
2021-05-09 (5 years ago)
Launch vehicle
FALCON 9
Launch site
Air Force Eastern Test Range (AFETR)
Object type
Payload
Rocket body
Debris
Shape & HBR
Box + 1 Pan, 10.1 m
Radar Cross Section
13.562 m², Large (>1 m²)

Expand to show TLE details & history
Last TLE update: 2 days ago

TLE from 2 days ago
0 STARLINK-2702
1 48441U 21040P   26171.39956836  .00006917  00000-0  23438-3 0  9990
2 48441  53.1607  60.3828 0001666  80.1133 280.0057 15.31710464282418
Epoch: 2026-06-20T09:35Z
TLE epoch observation values (Epoch: 2026-06-20T09:35:22.706Z)
Latitude
0.00003°
Longitude
7.92347°
Altitude
471.411 km
Speed
7.632 km/s
True Right ascension
04h 01m 31s
True Declination
0° 00' 00"
Sunlit
Object was in daylight at epoch
Visualization orbit readout
Latitude
Unknown
Longitude
Unknown
Altitude
Unknown
Speed
Unknown
Apparent Right ascension
Unknown
Apparent Declination
Unknown
Sunlit
N/A
Visualization observer readout
Local Sidereal Time
21:25:00
Azimuth
Unknown
Elevation
Unknown
Doppler factor
Unknown
Orbital elements
Apogee altitude
472.106 km
Perigee altitude
469.824 km
Semi-major axis
6,849.102 km
Eccentricity
0.00017
Inclination
53.1607°
RAAN
60.3828°
Arg. of periapsis
80.1133°
True anomaly
279.9869°
Mean anomaly
280.0057°
Eccentric anomaly
279.9963°
Mean motion
3.82906 °/min
Orbital period
94.02 mins
BSTAR
0.00023438
Loading maneuver chart data...
Computing Atmospheric mass density...

Documentation

Showing up to 5 results
|